UAL1166 KIAH-KSFO

Flight info

Callsign UAL1166
Flight time N/A
Altitude 28000
Route STYCK8 DOLEY FUZ SPS J58 PNH Q130 TAHIB/N0471F300 Q130 ROCCY Q164 KATTS Q136 RUMPS OAL INYOE DYAMD5
Aircraft B738/M-SDE2E3FGHIRWXY/LB1

Departure

Time 2026-05-03 23:10
Airport George Bush Intercontinental Airport (KIAH)

Arrival

Time N/A
Airport San Francisco International Airport (KSFO)
Time Latitude Longitude Altitude Speed Heading
2026-05-03 22:40 29.98534 -95.33650 106 ft 0 kts
2026-05-03 22:54 29.98524 -95.33650 106 ft 4 kts
2026-05-03 22:54 29.98498 -95.33656 106 ft 4 kts 24°
2026-05-03 22:54 29.98477 -95.33673 104 ft 4 kts 59°
2026-05-03 22:55 29.98471 -95.33695 105 ft 4 kts 94°
2026-05-03 22:55 29.98471 -95.33694 106 ft 2 kts 94°
2026-05-03 22:55 29.98458 -95.33687 105 ft 4 kts 168°
2026-05-03 22:55 29.98432 -95.33689 106 ft 4 kts 187°
2026-05-03 22:56 29.98405 -95.33692 106 ft 4 kts 184°
2026-05-03 22:56 29.98388 -95.33692 106 ft 0 kts 180°
2026-05-03 22:59 29.98387 -95.33692 106 ft 3 kts 180°
2026-05-03 22:59 29.98337 -95.33708 106 ft 12 kts 221°
2026-05-03 23:00 29.98320 -95.33815 102 ft 16 kts 268°
2026-05-03 23:00 29.98318 -95.33958 106 ft 18 kts 276°
2026-05-03 23:00 29.98366 -95.34089 106 ft 18 kts 290°
2026-05-03 23:00 29.98376 -95.34227 106 ft 17 kts 270°
2026-05-03 23:01 29.98377 -95.34360 106 ft 16 kts 270°
2026-05-03 23:01 29.98340 -95.34479 105 ft 16 kts 241°
2026-05-03 23:01 29.98324 -95.34600 106 ft 15 kts 270°
2026-05-03 23:01 29.98321 -95.34706 106 ft 11 kts 274°
2026-05-03 23:02 29.98324 -95.34790 106 ft 8 kts 270°
2026-05-03 23:02 29.98324 -95.34857 106 ft 8 kts 270°
2026-05-03 23:02 29.98324 -95.34922 106 ft 9 kts 269°
2026-05-03 23:02 29.98323 -95.35013 106 ft 12 kts 270°
2026-05-03 23:03 29.98324 -95.35078 106 ft 0 kts 271°
2026-05-03 23:05 29.98324 -95.35079 106 ft 0 kts 271°
2026-05-03 23:05 29.98324 -95.35090 106 ft 6 kts 271°
2026-05-03 23:05 29.98345 -95.35173 106 ft 16 kts 317°
2026-05-03 23:05 29.98455 -95.35246 106 ft 19 kts 331°
2026-05-03 23:06 29.98571 -95.35318 106 ft 19 kts 332°
2026-05-03 23:06 29.98684 -95.35388 106 ft 18 kts 332°
2026-05-03 23:06 29.98799 -95.35458 105 ft 21 kts 331°
2026-05-03 23:06 29.98879 -95.35532 106 ft 15 kts 287°
2026-05-03 23:07 29.98846 -95.35638 106 ft 14 kts 242°
2026-05-03 23:07 29.98821 -95.35692 106 ft 0 kts 242°
2026-05-03 23:08 29.98801 -95.35732 107 ft 11 kts 238°
2026-05-03 23:09 29.98732 -95.35749 107 ft 11 kts 157°
2026-05-03 23:09 29.98677 -95.35717 107 ft 6 kts 152°
2026-05-03 23:09 29.98595 -95.35667 106 ft 37 kts 152°
2026-05-03 23:09 29.98159 -95.35401 106 ft 103 kts 152°
2026-05-03 23:10 29.97363 -95.34915 104 ft 155 kts 152°
2026-05-03 23:10 29.96310 -95.34283 389 ft 182 kts 152°
2026-05-03 23:10 29.95152 -95.33548 992 ft 195 kts 139°
2026-05-03 23:10 29.94297 -95.32372 1717 ft 194 kts 110°
2026-05-03 23:11 29.94070 -95.30887 2518 ft 189 kts 81°
2026-05-03 23:11 29.94501 -95.29473 3149 ft 191 kts 52°
2026-05-03 23:11 29.95449 -95.28425 3812 ft 192 kts 29°
2026-05-03 23:11 29.96787 -95.27990 4035 ft 213 kts
2026-05-03 23:12 29.98328 -95.27944 4350 ft 229 kts
2026-05-03 23:12 29.99978 -95.27904 4676 ft 249 kts
2026-05-03 23:12 30.01752 -95.27866 5243 ft 258 kts
2026-05-03 23:12 30.03502 -95.28312 5944 ft 264 kts 332°
2026-05-03 23:13 30.04967 -95.29615 6710 ft 268 kts 321°
2026-05-03 23:13 30.06372 -95.31041 7429 ft 270 kts 321°
2026-05-03 23:13 30.07801 -95.32458 8164 ft 271 kts 321°
2026-05-03 23:13 30.09255 -95.33857 8897 ft 273 kts 321°
2026-05-03 23:14 30.10734 -95.35249 9640 ft 275 kts 322°
2026-05-03 23:14 30.12232 -95.36635 10321 ft 277 kts 321°
2026-05-03 23:14 30.13765 -95.38039 10593 ft 295 kts 322°
2026-05-03 23:14 30.15456 -95.39576 10748 ft 316 kts 322°
2026-05-03 23:15 30.17217 -95.41170 10890 ft 335 kts 322°
2026-05-03 23:15 30.19108 -95.42880 11037 ft 354 kts 322°
2026-05-03 23:15 30.21095 -95.44675 11174 ft 371 kts 322°
2026-05-03 23:15 30.23163 -95.46541 11498 ft 380 kts 321°
2026-05-03 23:16 30.25255 -95.48431 12038 ft 382 kts 321°
2026-05-03 23:16 30.27371 -95.50296 12613 ft 384 kts 324°
2026-05-03 23:16 30.29715 -95.51827 13130 ft 389 kts 332°
2026-05-03 23:16 30.32175 -95.53182 13630 ft 392 kts 332°
2026-05-03 23:17 30.34647 -95.54551 14083 ft 395 kts 332°
2026-05-03 23:17 30.37135 -95.55937 14530 ft 397 kts 331°
2026-05-03 23:17 30.39624 -95.57334 15009 ft 398 kts 331°
2026-05-03 23:17 30.42116 -95.58738 15478 ft 400 kts 331°
2026-05-03 23:18 30.44597 -95.60138 15901 ft 402 kts 331°
2026-05-03 23:18 30.47120 -95.61565 16332 ft 404 kts 331°
2026-05-03 23:18 30.49650 -95.62998 16767 ft 405 kts 331°
2026-05-03 23:18 30.52189 -95.64440 17189 ft 407 kts 330°
2026-05-03 23:19 30.54744 -95.65878 17618 ft 409 kts 331°
2026-05-03 23:19 30.57333 -95.67279 18013 ft 412 kts 332°
2026-05-03 23:19 30.59947 -95.68667 18403 ft 414 kts 332°
2026-05-03 23:19 30.62577 -95.70058 18758 ft 416 kts 332°
2026-05-03 23:20 30.65184 -95.71439 19107 ft 417 kts 332°
2026-05-03 23:20 30.67827 -95.72845 19444 ft 419 kts 331°
2026-05-03 23:20 30.70485 -95.74265 19768 ft 421 kts 331°
2026-05-03 23:20 30.73150 -95.75691 20092 ft 423 kts 331°
2026-05-03 23:21 30.75825 -95.77124 20421 ft 424 kts 331°
2026-05-03 23:21 30.78517 -95.78567 20752 ft 426 kts 330°
2026-05-03 23:21 30.81210 -95.80011 21072 ft 427 kts 330°
2026-05-03 23:21 30.83914 -95.81461 21400 ft 429 kts 330°
2026-05-03 23:22 30.89344 -95.84373 22010 ft 432 kts 330°
2026-05-03 23:22 30.92084 -95.85844 22301 ft 433 kts 330°
2026-05-03 23:22 30.94822 -95.87315 22596 ft 434 kts 330°
2026-05-03 23:23 30.97532 -95.88773 22880 ft 436 kts 330°
2026-05-03 23:23 31.00324 -95.90277 23167 ft 437 kts 330°
2026-05-03 23:23 31.03051 -95.91747 23434 ft 438 kts 330°
2026-05-03 23:23 31.05819 -95.93240 23704 ft 439 kts 329°
2026-05-03 23:24 31.08595 -95.94739 23921 ft 440 kts 329°
2026-05-03 23:24 31.11384 -95.96245 24145 ft 441 kts 329°
2026-05-03 23:24 31.14233 -95.97618 24371 ft 446 kts 334°
2026-05-03 23:24 31.17180 -95.98788 24593 ft 448 kts 336°
2026-05-03 23:25 31.20144 -95.99910 24805 ft 449 kts 336°
2026-05-03 23:25 31.23134 -96.01029 25015 ft 450 kts 336°
2026-05-03 23:25 31.26118 -96.02152 25217 ft 451 kts 336°
2026-05-03 23:25 31.29102 -96.03286 25453 ft 451 kts 336°
2026-05-03 23:26 31.32073 -96.04427 25760 ft 449 kts 335°
2026-05-03 23:26 31.35027 -96.05567 26116 ft 446 kts 335°
2026-05-03 23:26 31.37965 -96.06706 26473 ft 444 kts 335°
2026-05-03 23:26 31.40849 -96.07828 26798 ft 442 kts 335°
2026-05-03 23:27 31.43765 -96.08964 27123 ft 441 kts 335°
2026-05-03 23:27 31.46669 -96.10097 27469 ft 439 kts 335°
2026-05-03 23:27 31.49563 -96.11227 27791 ft 437 kts 335°
2026-05-03 23:27 31.52446 -96.12352 28146 ft 435 kts 335°
2026-05-03 23:28 31.55308 -96.13470 28502 ft 434 kts 334°
2026-05-03 23:28 31.58170 -96.14589 28867 ft 432 kts 334°
2026-05-03 23:28 31.61018 -96.15702 29207 ft 430 kts 334°
2026-05-03 23:28 31.63853 -96.16811 29574 ft 428 kts 334°
2026-05-03 23:29 31.66624 -96.17896 29934 ft 427 kts 334°
2026-05-03 23:29 31.69433 -96.18997 30264 ft 425 kts 334°
2026-05-03 23:29 31.72239 -96.20097 30551 ft 424 kts 334°
2026-05-03 23:29 31.75026 -96.21190 30855 ft 422 kts 334°
2026-05-03 23:30 31.77808 -96.22283 31120 ft 421 kts 334°
2026-05-03 23:30 31.80586 -96.23375 31339 ft 421 kts 334°
2026-05-03 23:30 31.83362 -96.24467 31596 ft 420 kts 333°
2026-05-03 23:30 31.86125 -96.25553 31905 ft 418 kts 333°
2026-05-03 23:31 31.88879 -96.26636 32188 ft 416 kts 333°
2026-05-03 23:31 31.91623 -96.27717 32424 ft 416 kts 333°
2026-05-03 23:31 31.94331 -96.28785 32636 ft 416 kts 333°
2026-05-03 23:31 31.97065 -96.29863 32909 ft 414 kts 333°
2026-05-03 23:32 31.99794 -96.30939 33189 ft 412 kts 333°
2026-05-03 23:32 32.02512 -96.32012 33422 ft 412 kts 333°
2026-05-03 23:32 32.05168 -96.33062 33616 ft 411 kts 333°
2026-05-03 23:32 32.07885 -96.34137 33872 ft 410 kts 333°
2026-05-03 23:33 32.10581 -96.35203 34128 ft 408 kts 332°
2026-05-03 23:33 32.13270 -96.36267 34295 ft 408 kts 332°
2026-05-03 23:33 32.15942 -96.37380 34458 ft 403 kts 328°
2026-05-03 23:33 32.18410 -96.38870 34639 ft 394 kts 321°
2026-05-03 23:34 32.20679 -96.40636 34855 ft 388 kts 316°
2026-05-03 23:34 32.22702 -96.42696 34986 ft 383 kts 311°
2026-05-03 23:34 32.24630 -96.44866 35092 ft 383 kts 310°
2026-05-03 23:34 32.25907 -96.46312 35159 ft 384 kts 310°
2026-05-03 23:35 32.29787 -96.50709 35282 ft 388 kts 311°
2026-05-03 23:35 32.32372 -96.53630 35439 ft 388 kts 311°
2026-05-03 23:35 32.34324 -96.55833 35624 ft 386 kts 311°
2026-05-03 23:36 32.35409 -96.57057 35734 ft 385 kts 311°
2026-05-03 23:36 32.37341 -96.59236 35930 ft 383 kts 311°
2026-05-03 23:36 32.39240 -96.61377 36079 ft 381 kts 310°
2026-05-03 23:36 32.41155 -96.63540 36074 ft 380 kts 311°
2026-05-03 23:37 32.44953 -96.67831 36099 ft 375 kts 310°
2026-05-03 23:37 32.48711 -96.72085 36094 ft 372 kts 310°
2026-05-03 23:38 32.52440 -96.76310 36101 ft 370 kts 310°
2026-05-03 23:38 32.56154 -96.80524 36070 ft 369 kts 310°
2026-05-03 23:39 32.59864 -96.84740 36075 ft 370 kts 311°
2026-05-03 23:39 32.63562 -96.88946 36089 ft 371 kts 311°
2026-05-03 23:40 32.67239 -96.93133 36075 ft 373 kts 311°
2026-05-03 23:40 32.70994 -96.97414 36095 ft 375 kts 311°
2026-05-03 23:41 32.74772 -97.01726 36104 ft 377 kts 311°
2026-05-03 23:41 32.78530 -97.06020 36102 ft 379 kts 311°
2026-05-03 23:42 32.82331 -97.10369 36053 ft 380 kts 311°
2026-05-03 23:42 32.86139 -97.14731 36061 ft 380 kts 311°
2026-05-03 23:43 32.89912 -97.19087 36054 ft 379 kts 309°
2026-05-03 23:43 32.93542 -97.23642 36054 ft 378 kts 308°
2026-05-03 23:44 32.97112 -97.28221 36065 ft 377 kts 308°
2026-05-03 23:44 33.00684 -97.32782 36044 ft 376 kts 308°
2026-05-03 23:45 33.04255 -97.37324 36054 ft 374 kts 308°
2026-05-03 23:45 33.07795 -97.41825 36053 ft 373 kts 309°
2026-05-03 23:46 33.11317 -97.46305 36058 ft 372 kts 308°
2026-05-03 23:46 33.14848 -97.50802 36065 ft 371 kts 308°
2026-05-03 23:47 33.18369 -97.55292 36063 ft 370 kts 308°
2026-05-03 23:47 33.21885 -97.59781 36012 ft 370 kts 309°
2026-05-03 23:48 33.25376 -97.64241 36046 ft 365 kts 309°
2026-05-03 23:48 33.28821 -97.68649 36056 ft 362 kts 309°
2026-05-03 23:49 33.32241 -97.73031 36059 ft 359 kts 309°
2026-05-03 23:49 33.35643 -97.77397 36057 ft 358 kts 309°
2026-05-03 23:50 33.39000 -97.81711 36052 ft 359 kts 309°
2026-05-03 23:50 33.42411 -97.86099 36049 ft 361 kts 309°
2026-05-03 23:51 33.45838 -97.90515 36037 ft 363 kts 309°
2026-05-03 23:51 33.49287 -97.94960 36035 ft 365 kts 309°
2026-05-03 23:52 33.52755 -97.99438 36020 ft 368 kts 309°
2026-05-03 23:52 33.56241 -98.03945 36025 ft 370 kts 309°
2026-05-03 23:53 33.59748 -98.08484 36019 ft 372 kts 309°
2026-05-03 23:53 33.63250 -98.13022 36013 ft 373 kts 309°
2026-05-03 23:54 33.66785 -98.17607 36008 ft 374 kts 309°
2026-05-03 23:54 33.70311 -98.22189 36020 ft 373 kts 309°
2026-05-03 23:55 33.73835 -98.26773 36018 ft 373 kts 308°
2026-05-03 23:55 33.77329 -98.31325 36027 ft 372 kts 308°
2026-05-03 23:56 33.80837 -98.35901 36030 ft 372 kts 308°
2026-05-03 23:56 33.84315 -98.40444 36038 ft 371 kts 308°
2026-05-03 23:57 33.87806 -98.45010 36037 ft 370 kts 308°
2026-05-03 23:57 33.91294 -98.49579 36038 ft 369 kts 308°
2026-05-03 23:58 33.94770 -98.54136 36018 ft 369 kts 308°
2026-05-03 23:58 33.98132 -98.58730 36018 ft 366 kts 303°
2026-05-03 23:59 34.00708 -98.63986 36019 ft 363 kts 295°
2026-05-03 23:59 34.02984 -98.69441 36010 ft 364 kts 295°
2026-05-04 00:00 34.05195 -98.74748 35993 ft 364 kts 295°
2026-05-04 00:00 34.07466 -98.80191 35980 ft 365 kts 295°
2026-05-04 00:01 34.09752 -98.85669 35960 ft 366 kts 295°
2026-05-04 00:01 34.12041 -98.91157 35960 ft 366 kts 295°
2026-05-04 00:02 34.14335 -98.96669 35957 ft 367 kts 295°
2026-05-04 00:02 34.16621 -99.02167 35959 ft 368 kts 295°
2026-05-04 00:03 34.18901 -99.07660 35954 ft 368 kts 295°
2026-05-04 00:03 34.21196 -99.13200 35950 ft 369 kts 295°
2026-05-04 00:04 34.23493 -99.18750 35955 ft 369 kts 295°
2026-05-04 00:04 34.25790 -99.24312 35947 ft 370 kts 295°
2026-05-04 00:05 34.28087 -99.29884 35947 ft 370 kts 295°
2026-05-04 00:05 34.30383 -99.35461 35939 ft 370 kts 295°
2026-05-04 00:06 34.32680 -99.41050 35937 ft 371 kts 295°
2026-05-04 00:06 34.34961 -99.46608 35933 ft 371 kts 295°
2026-05-04 00:07 34.37254 -99.52206 35928 ft 371 kts 295°
2026-05-04 00:07 34.39548 -99.57816 35930 ft 372 kts 295°
2026-05-04 00:08 34.41841 -99.63431 35923 ft 372 kts 295°
2026-05-04 00:08 34.44130 -99.69048 35937 ft 372 kts 295°
2026-05-04 00:09 34.46372 -99.74557 35930 ft 372 kts 295°
2026-05-04 00:09 34.48659 -99.80187 35924 ft 372 kts 294°
2026-05-04 00:10 34.50943 -99.85819 35926 ft 372 kts 294°
2026-05-04 00:10 34.53207 -99.91410 35933 ft 372 kts 294°
2026-05-04 00:11 34.55482 -99.97039 35941 ft 372 kts 294°
2026-05-04 00:11 34.57757 -100.02676 35941 ft 372 kts 294°
2026-05-04 00:12 34.60027 -100.08312 35954 ft 372 kts 294°
2026-05-04 00:12 34.62296 -100.13953 35955 ft 372 kts 294°
2026-05-04 00:13 34.64563 -100.19600 35954 ft 371 kts 294°
2026-05-04 00:13 34.66825 -100.25244 35941 ft 372 kts 294°
2026-05-04 00:14 34.69086 -100.30894 35948 ft 372 kts 294°
2026-05-04 00:14 34.71337 -100.36529 35945 ft 372 kts 294°
2026-05-04 00:15 34.73600 -100.42205 35932 ft 373 kts 294°
2026-05-04 00:15 34.75860 -100.47881 35914 ft 373 kts 294°
2026-05-04 00:16 34.78120 -100.53568 35922 ft 373 kts 294°
2026-05-04 00:16 34.80377 -100.59258 35909 ft 373 kts 294°
2026-05-04 00:17 34.82619 -100.64917 35912 ft 374 kts 294°
2026-05-04 00:17 34.84874 -100.70622 35917 ft 374 kts 294°
2026-05-04 00:18 34.87129 -100.76335 35915 ft 374 kts 294°
2026-05-04 00:18 34.89381 -100.82051 35908 ft 374 kts 294°
2026-05-04 00:19 34.91630 -100.87769 35896 ft 374 kts 294°
2026-05-04 00:19 34.93880 -100.93500 35899 ft 374 kts 294°
2026-05-04 00:20 34.96126 -100.99231 35896 ft 375 kts 293°
2026-05-04 00:20 34.98356 -101.04931 35897 ft 374 kts 293°
2026-05-04 00:21 35.00597 -101.10669 35894 ft 375 kts 293°
2026-05-04 00:21 35.02834 -101.16406 35893 ft 374 kts 293°
2026-05-04 00:22 35.05070 -101.22152 35889 ft 374 kts 293°
2026-05-04 00:22 35.06712 -101.28148 35890 ft 373 kts 285°
2026-05-04 00:23 35.08162 -101.34214 35897 ft 373 kts 286°
2026-05-04 00:23 35.09621 -101.40256 35920 ft 373 kts 286°
2026-05-04 00:24 35.11088 -101.46336 35936 ft 373 kts 286°
2026-05-04 00:24 35.12553 -101.52419 35957 ft 373 kts 286°
2026-05-04 00:25 35.14013 -101.58500 35971 ft 373 kts 286°
2026-05-04 00:25 35.15470 -101.64585 35996 ft 373 kts 285°
2026-05-04 00:26 35.16681 -101.69652 35989 ft 373 kts 285°
2026-05-04 00:26 35.18134 -101.75748 35995 ft 373 kts 285°
2026-05-04 00:27 35.19822 -101.82845 35986 ft 373 kts 285°
2026-05-04 00:27 35.21034 -101.87957 35984 ft 373 kts 285°
2026-05-04 00:28 35.22469 -101.94021 35943 ft 374 kts 285°
2026-05-04 00:28 35.23912 -102.00132 35923 ft 373 kts 285°
2026-05-04 00:29 35.25350 -102.06238 35916 ft 373 kts 285°
2026-05-04 00:29 35.26785 -102.12349 35893 ft 374 kts 285°
2026-05-04 00:30 35.28218 -102.18461 35876 ft 374 kts 285°
2026-05-04 00:30 35.29645 -102.24569 35886 ft 374 kts 285°
2026-05-04 00:31 35.31072 -102.30690 35885 ft 374 kts 285°
2026-05-04 00:31 35.32495 -102.36805 35876 ft 374 kts 285°
2026-05-04 00:32 35.33907 -102.42893 35882 ft 374 kts 285°
2026-05-04 00:32 35.35325 -102.49022 35889 ft 374 kts 285°
2026-05-04 00:33 35.37445 -102.58214 35879 ft 374 kts 285°
2026-05-04 00:34 35.38855 -102.64344 35880 ft 374 kts 285°
2026-05-04 00:34 35.40261 -102.70479 35881 ft 374 kts 285°
2026-05-04 00:35 35.41665 -102.76617 35880 ft 374 kts 285°
2026-05-04 00:35 35.43066 -102.82754 35868 ft 374 kts 285°
2026-05-04 00:36 35.44463 -102.88895 35868 ft 374 kts 285°
2026-05-04 00:36 35.45858 -102.95041 35864 ft 373 kts 284°
2026-05-04 00:37 35.47239 -103.01138 35868 ft 373 kts 284°
2026-05-04 00:37 35.48634 -103.07317 35849 ft 373 kts 284°
2026-05-04 00:38 35.50016 -103.13449 35859 ft 373 kts 284°
2026-05-04 00:38 35.51397 -103.19597 35856 ft 373 kts 284°
2026-05-04 00:39 35.52766 -103.25706 35845 ft 373 kts 284°
2026-05-04 00:39 35.54140 -103.31857 35836 ft 374 kts 284°
2026-05-04 00:40 35.55520 -103.38048 35844 ft 374 kts 284°
2026-05-04 00:40 35.56881 -103.44169 35846 ft 373 kts 284°
2026-05-04 00:41 35.58246 -103.50324 35838 ft 374 kts 284°
2026-05-04 00:41 35.59609 -103.56485 35838 ft 373 kts 284°
2026-05-04 00:42 35.60968 -103.62650 35835 ft 373 kts 284°
2026-05-04 00:42 35.62315 -103.68773 35832 ft 373 kts 284°
2026-05-04 00:43 35.63669 -103.74941 35821 ft 373 kts 284°
2026-05-04 00:43 35.65017 -103.81103 35823 ft 373 kts 284°
2026-05-04 00:44 35.66362 -103.87266 35827 ft 373 kts 284°
2026-05-04 00:44 35.67703 -103.93425 35825 ft 373 kts 284°
2026-05-04 00:45 35.69042 -103.99595 35824 ft 373 kts 284°
2026-05-04 00:45 35.70373 -104.05744 35823 ft 374 kts 284°
2026-05-04 00:46 35.71710 -104.11934 35820 ft 374 kts 284°
2026-05-04 00:46 35.73043 -104.18121 35828 ft 373 kts 284°
2026-05-04 00:47 35.74370 -104.24301 35821 ft 374 kts 284°
2026-05-04 00:47 35.75698 -104.30502 35823 ft 374 kts 284°
2026-05-04 00:48 35.77019 -104.36690 35816 ft 373 kts 283°
2026-05-04 00:48 35.78336 -104.42875 35818 ft 373 kts 283°
2026-05-04 00:49 35.79640 -104.49010 35822 ft 372 kts 283°
2026-05-04 00:49 35.80946 -104.55175 35828 ft 371 kts 283°
2026-05-04 00:50 35.82246 -104.61329 35828 ft 371 kts 283°
2026-05-04 00:50 35.83541 -104.67474 35831 ft 370 kts 283°
2026-05-04 00:51 35.84831 -104.73614 35832 ft 370 kts 283°
2026-05-04 00:51 35.86115 -104.79747 35850 ft 369 kts 283°
2026-05-04 00:52 35.87397 -104.85882 35880 ft 369 kts 283°
2026-05-04 00:52 35.88674 -104.92011 35908 ft 368 kts 283°
2026-05-04 00:53 35.89946 -104.98129 35920 ft 369 kts 283°
2026-05-04 00:53 35.91215 -105.04255 35932 ft 369 kts 283°
2026-05-04 00:54 35.92477 -105.10360 35943 ft 369 kts 283°
2026-05-04 00:54 35.93743 -105.16506 35939 ft 370 kts 283°
2026-05-04 00:55 35.95008 -105.22659 35933 ft 370 kts 283°
2026-05-04 00:55 35.96270 -105.28817 35933 ft 370 kts 283°
2026-05-04 00:56 35.97533 -105.35001 35926 ft 371 kts 283°
2026-05-04 00:56 35.98782 -105.41132 35941 ft 371 kts 283°
2026-05-04 00:57 36.00046 -105.47350 35945 ft 371 kts 282°
2026-05-04 00:57 36.01289 -105.53485 35944 ft 369 kts 283°
2026-05-04 00:58 36.02537 -105.59660 35953 ft 370 kts 283°
2026-05-04 00:58 36.03787 -105.65865 35966 ft 372 kts 283°
2026-05-04 00:59 36.05025 -105.72030 35939 ft 372 kts 283°
2026-05-04 00:59 36.06268 -105.78232 35936 ft 372 kts 283°
2026-05-04 01:00 36.07506 -105.84431 35925 ft 371 kts 283°
2026-05-04 01:00 36.08741 -105.90633 35921 ft 371 kts 283°
2026-05-04 01:01 36.09970 -105.96824 35933 ft 370 kts 283°
2026-05-04 01:01 36.11196 -106.03012 35959 ft 370 kts 283°
2026-05-04 01:02 36.12417 -106.09196 35960 ft 368 kts 283°
2026-05-04 01:02 36.13622 -106.15319 35979 ft 368 kts 283°
2026-05-04 01:03 36.14831 -106.21477 35975 ft 368 kts 282°
2026-05-04 01:03 36.16037 -106.27641 35976 ft 369 kts 282°
2026-05-04 01:04 36.17241 -106.33812 35978 ft 369 kts 282°
2026-05-04 01:04 36.18446 -106.40005 35952 ft 370 kts 282°
2026-05-04 01:05 36.19250 -106.44146 35959 ft 370 kts 282°
2026-05-04 01:06 36.23145 -106.64324 35939 ft 367 kts 282°
2026-05-04 01:07 36.24326 -106.70477 35972 ft 368 kts 282°
2026-05-04 01:07 36.25507 -106.76662 35971 ft 370 kts 282°
2026-05-04 01:08 36.26691 -106.82879 35964 ft 371 kts 282°
2026-05-04 01:08 36.27872 -106.89097 35959 ft 370 kts 282°
2026-05-04 01:09 36.29049 -106.95305 35959 ft 370 kts 282°
2026-05-04 01:09 36.30222 -107.01519 35957 ft 369 kts 282°
2026-05-04 01:10 36.31380 -107.07667 35956 ft 369 kts 282°
2026-05-04 01:10 36.32543 -107.13863 35948 ft 368 kts 281°
2026-05-04 01:11 36.33698 -107.20036 35945 ft 367 kts 281°
2026-05-04 01:11 36.34851 -107.26213 35946 ft 367 kts 281°
2026-05-04 01:12 36.35997 -107.32375 35946 ft 366 kts 281°
2026-05-04 01:12 36.37140 -107.38536 35944 ft 366 kts 281°
2026-05-04 01:13 36.38281 -107.44710 35943 ft 366 kts 281°
2026-05-04 01:13 36.39416 -107.50866 35944 ft 365 kts 281°
2026-05-04 01:14 36.40539 -107.56979 35939 ft 366 kts 281°
2026-05-04 01:14 36.41668 -107.63144 35939 ft 367 kts 281°
2026-05-04 01:15 36.42797 -107.69326 35936 ft 367 kts 281°
2026-05-04 01:15 36.43924 -107.75516 35923 ft 367 kts 281°
2026-05-04 01:16 36.45046 -107.81697 35932 ft 367 kts 281°
2026-05-04 01:16 36.46167 -107.87893 35928 ft 367 kts 280°
2026-05-04 01:17 36.47283 -107.94082 35919 ft 367 kts 280°
2026-05-04 01:17 36.48398 -108.00286 35935 ft 368 kts 280°
2026-05-04 01:18 36.49502 -108.06445 35938 ft 368 kts 280°
2026-05-04 01:18 36.50610 -108.12649 35952 ft 367 kts 280°
2026-05-04 01:19 36.51715 -108.18853 35947 ft 368 kts 280°
2026-05-04 01:19 36.52818 -108.25066 35953 ft 368 kts 280°
2026-05-04 01:20 36.53918 -108.31286 35953 ft 368 kts 280°
2026-05-04 01:20 36.55016 -108.37510 35950 ft 368 kts 280°
2026-05-04 01:21 36.56110 -108.43736 35940 ft 368 kts 280°
2026-05-04 01:21 36.57203 -108.49971 35928 ft 369 kts 279°
2026-05-04 01:22 36.58284 -108.56164 35911 ft 369 kts 279°
2026-05-04 01:22 36.59371 -108.62406 35899 ft 369 kts 279°
2026-05-04 01:23 36.60454 -108.68649 35893 ft 369 kts 279°
2026-05-04 01:23 36.61534 -108.74891 35897 ft 369 kts 279°
2026-05-04 01:24 36.62610 -108.81136 35892 ft 369 kts 279°
2026-05-04 01:24 36.63684 -108.87388 35903 ft 369 kts 279°
2026-05-04 01:25 36.64576 -108.92592 35895 ft 369 kts 279°
2026-05-04 01:25 36.65824 -108.99907 35895 ft 369 kts 279°
2026-05-04 01:26 36.66709 -109.05104 35906 ft 369 kts 279°
2026-05-04 01:26 36.67772 -109.11371 35898 ft 369 kts 279°
2026-05-04 01:27 36.69009 -109.18691 35897 ft 370 kts 279°
2026-05-04 01:27 36.69886 -109.23899 35885 ft 370 kts 279°
2026-05-04 01:28 36.71116 -109.31230 35888 ft 370 kts 279°
2026-05-04 01:28 36.72160 -109.37469 35875 ft 370 kts 279°
2026-05-04 01:29 36.73035 -109.42722 35877 ft 369 kts 279°
2026-05-04 01:29 36.74247 -109.50016 35872 ft 370 kts 278°
2026-05-04 01:30 36.75285 -109.56288 35865 ft 371 kts 278°
2026-05-04 01:30 36.76324 -109.62586 35861 ft 371 kts 278°
2026-05-04 01:31 36.77363 -109.68906 35855 ft 372 kts 278°
2026-05-04 01:31 36.78225 -109.74167 35852 ft 372 kts 278°
2026-05-04 01:32 36.79259 -109.80493 35855 ft 372 kts 278°
2026-05-04 01:32 36.80289 -109.86818 35857 ft 372 kts 278°
2026-05-04 01:33 36.81314 -109.93139 35847 ft 372 kts 278°
2026-05-04 01:33 36.82336 -109.99466 35848 ft 371 kts 278°
2026-05-04 01:34 36.83348 -110.05744 35847 ft 371 kts 278°
2026-05-04 01:34 36.84364 -110.12078 35856 ft 372 kts 278°
2026-05-04 01:35 36.85376 -110.18410 35860 ft 372 kts 278°
2026-05-04 01:35 36.86389 -110.24767 35861 ft 373 kts 278°
2026-05-04 01:36 36.87398 -110.31125 35859 ft 373 kts 278°
2026-05-04 01:36 36.88399 -110.37453 35867 ft 375 kts 278°
2026-05-04 01:37 36.89410 -110.43871 35865 ft 378 kts 278°
2026-05-04 01:37 36.90420 -110.50294 35865 ft 374 kts 278°
2026-05-04 01:38 36.91415 -110.56651 35867 ft 371 kts 278°
2026-05-04 01:38 36.92390 -110.62915 35877 ft 369 kts 277°
2026-05-04 01:39 36.93377 -110.69291 35884 ft 377 kts 277°
2026-05-04 01:39 36.94376 -110.75749 35877 ft 377 kts 277°
2026-05-04 01:40 36.95370 -110.82178 35862 ft 376 kts 277°
2026-05-04 01:40 36.96355 -110.88587 35867 ft 374 kts 277°
2026-05-04 01:41 36.97330 -110.94955 35859 ft 374 kts 277°
2026-05-04 01:41 36.98304 -111.01347 35853 ft 374 kts 278°
2026-05-04 01:42 36.99276 -111.07746 35865 ft 374 kts 277°
2026-05-04 01:42 37.00245 -111.14152 35883 ft 375 kts 277°
2026-05-04 01:43 37.01211 -111.20555 35883 ft 374 kts 277°
2026-05-04 01:43 37.02168 -111.26951 35908 ft 374 kts 277°
2026-05-04 01:44 37.03122 -111.33333 35913 ft 375 kts 277°
2026-05-04 01:44 37.04081 -111.39764 35922 ft 377 kts 277°
2026-05-04 01:45 37.05040 -111.46223 35922 ft 377 kts 277°
2026-05-04 01:45 37.06475 -111.55938 35910 ft 379 kts 277°
2026-05-04 01:46 37.07428 -111.62423 35909 ft 379 kts 277°
2026-05-04 01:46 37.08375 -111.68896 35899 ft 379 kts 277°
2026-05-04 01:47 37.09323 -111.75398 35893 ft 379 kts 277°
2026-05-04 01:47 37.10268 -111.81906 35895 ft 380 kts 276°
2026-05-04 01:48 37.11212 -111.88428 35910 ft 380 kts 276°
2026-05-04 01:48 37.12147 -111.94922 35907 ft 381 kts 276°
2026-05-04 01:49 37.13085 -112.01459 35907 ft 382 kts 276°
2026-05-04 01:49 37.14021 -112.08005 35917 ft 381 kts 276°
2026-05-04 01:50 37.14952 -112.14554 35917 ft 381 kts 276°
2026-05-04 01:50 37.15878 -112.21090 35926 ft 380 kts 276°
2026-05-04 01:51 37.16801 -112.27627 35916 ft 381 kts 276°
2026-05-04 01:51 37.17713 -112.34122 35898 ft 381 kts 276°
2026-05-04 01:52 37.18629 -112.40665 35904 ft 381 kts 276°
2026-05-04 01:52 37.19542 -112.47209 35903 ft 380 kts 276°
2026-05-04 01:53 37.20448 -112.53747 35893 ft 380 kts 276°
2026-05-04 01:53 37.21352 -112.60282 35883 ft 379 kts 276°
2026-05-04 01:54 37.22246 -112.66782 35873 ft 380 kts 276°
2026-05-04 01:54 37.23143 -112.73328 35875 ft 380 kts 276°
2026-05-04 01:55 37.24036 -112.79873 35882 ft 380 kts 276°
2026-05-04 01:55 37.24921 -112.86382 35890 ft 380 kts 275°
2026-05-04 01:56 37.25805 -112.92915 35863 ft 379 kts 275°
2026-05-04 01:56 37.26246 -112.96190 35720 ft 381 kts 275°
2026-05-04 01:56 37.26702 -112.99458 35839 ft 377 kts 276°
2026-05-04 01:57 37.27575 -113.05948 35790 ft 378 kts 275°
2026-05-04 01:57 37.28291 -113.11360 35800 ft 378 kts 275°
2026-05-04 01:58 37.29296 -113.19001 35789 ft 379 kts 275°
2026-05-04 01:58 37.30155 -113.25514 35782 ft 382 kts 275°
2026-05-04 01:59 37.31024 -113.32090 35784 ft 380 kts 275°
2026-05-04 01:59 37.31882 -113.38616 35787 ft 378 kts 275°
2026-05-04 02:00 37.32735 -113.45149 35785 ft 380 kts 275°
2026-05-04 02:00 37.33590 -113.51728 35783 ft 383 kts 275°
2026-05-04 02:01 37.34447 -113.58347 35769 ft 383 kts 275°
2026-05-04 02:01 37.35299 -113.64960 35760 ft 383 kts 275°
2026-05-04 02:02 37.36143 -113.71527 35748 ft 382 kts 275°
2026-05-04 02:02 37.36985 -113.78120 35744 ft 382 kts 275°
2026-05-04 02:03 37.37823 -113.84714 35748 ft 382 kts 274°
2026-05-04 02:03 37.38658 -113.91306 35744 ft 382 kts 274°
2026-05-04 02:04 37.39488 -113.97895 35742 ft 382 kts 274°
2026-05-04 02:04 37.40315 -114.04496 35732 ft 382 kts 274°
2026-05-04 02:05 37.41139 -114.11090 35754 ft 381 kts 274°
2026-05-04 02:05 37.41953 -114.17634 35746 ft 380 kts 274°
2026-05-04 02:06 37.42768 -114.24216 35753 ft 380 kts 274°
2026-05-04 02:06 37.43578 -114.30804 35741 ft 381 kts 274°
2026-05-04 02:07 37.44378 -114.37345 35750 ft 380 kts 274°
2026-05-04 02:07 37.45182 -114.43938 35754 ft 381 kts 274°
2026-05-04 02:08 37.45983 -114.50542 35745 ft 382 kts 274°
2026-05-04 02:08 37.46782 -114.57159 35754 ft 383 kts 274°
2026-05-04 02:09 37.47582 -114.63809 35744 ft 383 kts 274°
2026-05-04 02:09 37.48371 -114.70408 35751 ft 382 kts 274°
2026-05-04 02:10 37.49160 -114.77043 35759 ft 383 kts 274°
2026-05-04 02:10 37.49947 -114.83693 35752 ft 384 kts 274°
2026-05-04 02:11 37.50732 -114.90351 35745 ft 384 kts 274°
2026-05-04 02:11 37.51513 -114.97012 35746 ft 384 kts 274°
2026-05-04 02:12 37.52285 -115.03631 35723 ft 384 kts 273°
2026-05-04 02:12 37.53060 -115.10288 35764 ft 385 kts 273°
2026-05-04 02:13 37.53832 -115.16983 35752 ft 386 kts 273°
2026-05-04 02:13 37.54600 -115.23676 35762 ft 386 kts 273°
2026-05-04 02:14 37.55367 -115.30381 35759 ft 387 kts 273°
2026-05-04 02:14 37.56131 -115.37107 35750 ft 387 kts 273°
2026-05-04 02:15 37.56886 -115.43769 35769 ft 387 kts 273°
2026-05-04 02:15 37.57644 -115.50509 35778 ft 388 kts 273°
2026-05-04 02:16 37.58401 -115.57277 35774 ft 390 kts 273°
2026-05-04 02:16 37.59028 -115.62902 35778 ft 390 kts 273°
2026-05-04 02:17 37.59781 -115.69695 35784 ft 391 kts 273°
2026-05-04 02:17 37.60531 -115.76497 35789 ft 392 kts 273°
2026-05-04 02:18 37.61279 -115.83312 35796 ft 392 kts 273°
2026-05-04 02:18 37.62018 -115.90087 35801 ft 393 kts 273°
2026-05-04 02:19 37.62760 -115.96925 35806 ft 393 kts 273°
2026-05-04 02:19 37.63498 -116.03769 35807 ft 394 kts 272°
2026-05-04 02:20 37.64233 -116.10617 35819 ft 394 kts 272°
2026-05-04 02:20 37.64964 -116.17474 35825 ft 395 kts 272°
2026-05-04 02:21 37.65694 -116.24352 35819 ft 395 kts 272°
2026-05-04 02:21 37.66415 -116.31187 35830 ft 396 kts 272°
2026-05-04 02:22 37.67140 -116.38099 35836 ft 397 kts 272°
2026-05-04 02:22 37.67862 -116.45028 35823 ft 399 kts 272°
2026-05-04 02:23 37.68584 -116.51988 35817 ft 400 kts 272°
2026-05-04 02:23 37.69302 -116.58951 35822 ft 400 kts 272°
2026-05-04 02:24 37.70012 -116.65886 35819 ft 401 kts 272°
2026-05-04 02:24 37.70729 -116.72920 35810 ft 401 kts 272°
2026-05-04 02:25 37.71432 -116.79865 35804 ft 402 kts 272°
2026-05-04 02:25 37.72137 -116.86870 35802 ft 402 kts 272°
2026-05-04 02:26 37.72839 -116.93898 35805 ft 404 kts 272°
2026-05-04 02:26 37.73540 -117.00947 35810 ft 404 kts 272°
2026-05-04 02:27 37.74238 -117.08012 35820 ft 404 kts 272°
2026-05-04 02:27 37.74931 -117.15063 35814 ft 404 kts 272°
2026-05-04 02:28 37.75616 -117.22084 35800 ft 405 kts 272°
2026-05-04 02:28 37.76301 -117.29148 35790 ft 405 kts 272°
2026-05-04 02:29 37.76982 -117.36220 35767 ft 404 kts 272°
2026-05-04 02:29 37.77659 -117.43293 35768 ft 406 kts 272°
2026-05-04 02:30 37.78333 -117.50380 35768 ft 407 kts 272°
2026-05-04 02:30 37.79006 -117.57501 35753 ft 408 kts 272°
2026-05-04 02:31 37.79673 -117.64609 35751 ft 409 kts 272°
2026-05-04 02:31 37.80338 -117.71738 35755 ft 408 kts 272°
2026-05-04 02:32 37.81001 -117.78890 35759 ft 409 kts 272°
2026-05-04 02:32 37.81659 -117.86051 35756 ft 411 kts 272°
2026-05-04 02:33 37.82316 -117.93246 35763 ft 412 kts 272°
2026-05-04 02:33 37.82968 -118.00419 35771 ft 414 kts 272°
2026-05-04 02:34 37.83621 -118.07664 35776 ft 415 kts 272°
2026-05-04 02:34 37.84270 -118.14923 35786 ft 416 kts 272°
2026-05-04 02:35 37.84918 -118.22207 35796 ft 417 kts 272°
2026-05-04 02:35 37.85559 -118.29477 35803 ft 418 kts 272°
2026-05-04 02:36 37.86199 -118.36776 35821 ft 418 kts 272°
2026-05-04 02:36 37.86837 -118.44111 35833 ft 420 kts 272°
2026-05-04 02:37 37.87473 -118.51470 35833 ft 421 kts 272°
2026-05-04 02:37 37.88106 -118.58850 35866 ft 422 kts 272°
2026-05-04 02:38 37.88735 -118.66241 35889 ft 423 kts 272°
2026-05-04 02:38 37.89362 -118.73660 35895 ft 424 kts 272°
2026-05-04 02:39 37.89165 -118.81017 35937 ft 417 kts 258°
2026-05-04 02:39 37.88277 -118.88301 35929 ft 419 kts 259°
2026-05-04 02:40 37.87427 -118.95581 35922 ft 421 kts 259°
2026-05-04 02:40 37.86581 -119.02923 35925 ft 422 kts 259°
2026-05-04 02:41 37.85733 -119.10276 35918 ft 422 kts 259°
2026-05-04 02:41 37.84880 -119.17637 35898 ft 422 kts 259°
2026-05-04 02:42 37.84027 -119.24941 35904 ft 422 kts 259°
2026-05-04 02:42 37.83164 -119.32291 35927 ft 423 kts 259°
2026-05-04 02:43 37.82292 -119.39678 35930 ft 424 kts 259°
2026-05-04 02:43 37.81414 -119.47071 35949 ft 425 kts 259°
2026-05-04 02:44 37.80537 -119.54417 35949 ft 426 kts 259°
2026-05-04 02:44 37.79648 -119.61830 35946 ft 426 kts 258°
2026-05-04 02:45 37.78755 -119.69232 35943 ft 426 kts 259°
2026-05-04 02:45 37.77854 -119.76656 35944 ft 427 kts 259°
2026-05-04 02:46 37.76954 -119.84032 35934 ft 427 kts 259°
2026-05-04 02:46 37.76496 -119.87768 35490 ft 435 kts 259°
2026-05-04 02:46 37.76035 -119.91517 34907 ft 429 kts 259°
2026-05-04 02:47 37.75579 -119.95231 34262 ft 426 kts 259°
2026-05-04 02:47 37.75124 -119.98916 33509 ft 424 kts 259°
2026-05-04 02:47 37.74669 -120.02595 32764 ft 424 kts 259°
2026-05-04 02:47 37.74210 -120.06292 32019 ft 427 kts 259°
2026-05-04 02:48 37.73746 -120.10010 31262 ft 430 kts 259°
2026-05-04 02:48 37.73276 -120.13775 30492 ft 439 kts 259°
2026-05-04 02:48 37.72787 -120.17673 29634 ft 461 kts 259°
2026-05-04 02:48 37.72269 -120.21784 28642 ft 485 kts 259°
2026-05-04 02:49 37.71735 -120.26030 27690 ft 489 kts 259°
2026-05-04 02:49 37.71208 -120.30237 27424 ft 476 kts 259°
2026-05-04 02:49 37.70697 -120.34308 27176 ft 463 kts 259°
2026-05-04 02:49 37.70196 -120.38263 26983 ft 450 kts 259°
2026-05-04 02:50 37.69716 -120.42068 26636 ft 442 kts 259°
2026-05-04 02:50 37.69259 -120.45909 26066 ft 441 kts 260°
2026-05-04 02:50 37.68819 -120.49727 25529 ft 439 kts 260°
2026-05-04 02:50 37.68382 -120.53545 24997 ft 437 kts 260°
2026-05-04 02:51 37.67946 -120.57331 24466 ft 435 kts 260°
2026-05-04 02:51 37.67507 -120.61102 23931 ft 433 kts 260°
2026-05-04 02:51 37.67066 -120.64855 23361 ft 431 kts 260°
2026-05-04 02:51 37.66626 -120.68593 22759 ft 429 kts 260°
2026-05-04 02:52 37.66187 -120.72304 22194 ft 425 kts 260°
2026-05-04 02:52 37.65751 -120.75979 21689 ft 421 kts 259°
2026-05-04 02:52 37.65316 -120.79609 21187 ft 416 kts 259°
2026-05-04 02:52 37.64888 -120.83166 20715 ft 412 kts 259°
2026-05-04 02:53 37.64459 -120.86719 20237 ft 408 kts 259°
2026-05-04 02:53 37.64033 -120.90243 19769 ft 404 kts 259°
2026-05-04 02:53 37.63611 -120.93726 19309 ft 400 kts 259°
2026-05-04 02:53 37.63189 -120.97176 18855 ft 396 kts 259°
2026-05-04 02:54 37.62743 -121.00593 18400 ft 393 kts 258°
2026-05-04 02:54 37.62287 -121.03976 17909 ft 389 kts 258°
2026-05-04 02:54 37.61832 -121.07337 17412 ft 386 kts 258°
2026-05-04 02:54 37.61383 -121.10655 16949 ft 382 kts 258°
2026-05-04 02:55 37.60505 -121.17181 16068 ft 374 kts 259°
2026-05-04 02:55 37.60071 -121.20409 15635 ft 370 kts 259°
2026-05-04 02:55 37.59642 -121.23590 15224 ft 366 kts 259°
2026-05-04 02:56 37.59221 -121.26713 14812 ft 363 kts 259°
2026-05-04 02:56 37.58837 -121.29845 14392 ft 360 kts 260°
2026-05-04 02:56 37.58481 -121.32964 13985 ft 358 kts 261°
2026-05-04 02:56 37.58134 -121.36058 13545 ft 355 kts 261°
2026-05-04 02:57 37.57788 -121.39126 13105 ft 352 kts 261°
2026-05-04 02:57 37.57441 -121.42176 12678 ft 349 kts 260°
2026-05-04 02:57 37.57094 -121.45198 12266 ft 347 kts 260°
2026-05-04 02:57 37.56747 -121.48195 11855 ft 344 kts 260°
2026-05-04 02:58 37.56403 -121.51159 11459 ft 340 kts 260°
2026-05-04 02:58 37.56061 -121.54100 11078 ft 338 kts 259°
2026-05-04 02:58 37.55734 -121.56896 10702 ft 336 kts 259°
2026-05-04 02:58 37.55395 -121.59789 10313 ft 333 kts 259°
2026-05-04 02:59 37.55053 -121.62639 9951 ft 331 kts 257°
2026-05-04 02:59 37.54506 -121.65392 9926 ft 316 kts 251°
2026-05-04 02:59 37.53854 -121.67982 9839 ft 303 kts 250°
2026-05-04 02:59 37.53216 -121.70464 9766 ft 292 kts 250°
2026-05-04 03:00 37.52618 -121.72862 9679 ft 282 kts 250°
2026-05-04 03:00 37.52049 -121.75197 9507 ft 276 kts 250°
2026-05-04 03:00 37.51492 -121.77509 9244 ft 274 kts 250°
2026-05-04 03:00 37.50946 -121.79783 9113 ft 268 kts 250°
2026-05-04 03:01 37.50411 -121.82013 8875 ft 264 kts 250°
2026-05-04 03:01 37.49885 -121.84199 8611 ft 263 kts 250°
2026-05-04 03:01 37.49351 -121.86429 8363 ft 262 kts 251°
2026-05-04 03:01 37.49210 -121.88701 7959 ft 270 kts 276°
2026-05-04 03:02 37.49565 -121.91031 7663 ft 270 kts 278°
2026-05-04 03:02 37.49933 -121.93336 7453 ft 267 kts 278°
2026-05-04 03:02 37.50294 -121.95624 7178 ft 266 kts 278°
2026-05-04 03:02 37.50651 -121.97912 6912 ft 266 kts 278°
2026-05-04 03:03 37.51003 -122.00192 6640 ft 265 kts 278°
2026-05-04 03:03 37.51352 -122.02473 6376 ft 264 kts 278°
2026-05-04 03:03 37.51688 -122.04677 6144 ft 262 kts 278°
2026-05-04 03:03 37.52029 -122.06916 5926 ft 258 kts 278°
2026-05-04 03:04 37.52210 -122.08110 5786 ft 257 kts 278°
2026-05-04 03:04 37.52549 -122.10346 5556 ft 255 kts 278°
2026-05-04 03:04 37.52987 -122.13243 5260 ft 252 kts 278°
2026-05-04 03:04 37.53309 -122.15373 5187 ft 243 kts 278°
2026-05-04 03:05 37.53522 -122.16767 5121 ft 238 kts 279°
2026-05-04 03:05 37.54343 -122.19373 4399 ft 256 kts 296°
2026-05-04 03:05 37.54914 -122.20665 3902 ft 269 kts 297°
2026-05-04 03:05 37.55848 -122.22766 3420 ft 273 kts 297°
2026-05-04 03:06 37.56754 -122.24845 2720 ft 275 kts 296°
2026-05-04 03:06 37.57677 -122.26991 2073 ft 277 kts 296°
2026-05-04 03:06 37.58594 -122.29063 1858 ft 263 kts 303°
2026-05-04 03:06 37.59930 -122.30544 1676 ft 253 kts 332°
2026-05-04 03:07 37.61594 -122.30954 1626 ft 240 kts
2026-05-04 03:07 37.63088 -122.30232 1594 ft 227 kts 42°
2026-05-04 03:07 37.63848 -122.28569 1614 ft 220 kts 84°
2026-05-04 03:07 37.63566 -122.26728 1633 ft 221 kts 127°
2026-05-04 03:08 37.62412 -122.25572 1624 ft 214 kts 167°
2026-05-04 03:08 37.60979 -122.25666 1637 ft 206 kts 206°
2026-05-04 03:08 37.59950 -122.26847 1641 ft 202 kts 239°
2026-05-04 03:08 37.59251 -122.28375 1617 ft 200 kts 242°
2026-05-04 03:09 37.58966 -122.30057 1533 ft 205 kts 276°
2026-05-04 03:09 37.59512 -122.31735 1227 ft 206 kts 292°
2026-05-04 03:09 37.60112 -122.33358 902 ft 199 kts 296°
2026-05-04 03:09 37.60979 -122.34604 1527 ft 193 kts 311°
2026-05-04 03:10 37.62047 -122.35709 2386 ft 206 kts 321°
2026-05-04 03:10 37.63313 -122.36432 3597 ft 198 kts 354°
2026-05-04 03:10 37.64659 -122.35976 4347 ft 205 kts 33°
2026-05-04 03:10 37.65592 -122.34643 4189 ft 209 kts 70°
2026-05-04 03:11 37.65795 -122.32840 4046 ft 209 kts 99°
2026-05-04 03:11 37.65397 -122.31077 3925 ft 210 kts 113°
2026-05-04 03:11 37.64821 -122.29343 3735 ft 217 kts 117°
2026-05-04 03:11 37.64141 -122.27652 3638 ft 218 kts 120°
2026-05-04 03:12 37.63394 -122.25953 3510 ft 221 kts 122°
2026-05-04 03:12 37.63263 -122.25671 3506 ft 222 kts 123°